Showing default

ELEKTRON 3, 829

Orbit data source: Space-Track

ELEKTRON 3, 829 is a payload satellite owned by OKB-1 (CIS) that was launched on Fri, 10 Jul 1964 UTC via a VOSTOK 8K72 launch vehicle from the Tyuratam Missile And Space Complex (TTMTR). Payload-class satellites include a variety of spacecraft equipped with specific instruments for various scientific and technological missions. These include communications satellites like Starlink; space stations such as the ISS; scientific satellites like the Hubble; Earth observation satellites from companies like Planet Labs, Umbra, and HawkEye 360; GPS; miniature CubeSats for education and research; and military/defense satellites.

Loading next visibility...
Identifier
829, 1964-038A
Orbit
Active
Country
Flag of CISCIS
Related business
Manufacturer
OKB-1
Mission
Civil Science
Bus & Motor
OBJECT D, Unknown motor
Mass
350 kg wet, 350 kg dry
Launch date (UTC)
1964-07-10 (61 years ago)
Launch vehicle
VOSTOK 8K72
Launch site
Tyuratam Missile And Space Complex (TTMTR)
Object type
Payload
Rocket body
Debris
Shape & HBR
Cyl + 6 Pan, 2.0 m
Radar Cross Section
2.718 m², Large (>1 m²)

Expand to show TLE details & history
Last TLE update: 21 hours ago

TLE from 21 hours ago
0 ELEKTRON 3
1 00829U 64038A   25258.27855536  .00001629  00000-0  45126-3 0  9992
2 00829  60.8194 221.4240 2943298 275.4165  52.2433  9.20439177990123
Epoch: 2025-09-15T06:41Z
TLE epoch observation values (Epoch: 2025-09-15T06:41:07.183Z)
Latitude
0.00006°
Longitude
126.65861°
Altitude
2,174.293 km
Speed
7.197 km/s
True Right ascension
14h 45m 41s
True Declination
0° 00' 00"
Sunlit
Object was in daylight at epoch
Visualization orbit readout
Latitude
Unknown
Longitude
Unknown
Altitude
Unknown
Speed
Unknown
Apparent Right ascension
Unknown
Apparent Declination
Unknown
Sunlit
N/A
Visualization observer readout
Local Sidereal Time
20:38:56
Azimuth
Unknown
Elevation
Unknown
Doppler factor
Unknown
Orbital elements
Apogee altitude
6,069.388 km
Perigee altitude
408.269 km
Semi-major axis
9,616.966 km
Eccentricity
0.29433
Inclination
60.8194°
RAAN
221.424°
Arg. of periapsis
275.4165°
True anomaly
84.67751°
Mean anomaly
52.2433°
Eccentric anomaly
67.86417°
Mean motion
2.30137 °/min
Orbital period
156.43 mins
BSTAR
0.00045126
Loading maneuver chart data...
Computing Atmospheric mass density...
Loading historical data...
Loading historical data...
Loading historical data...
Loading historical data...
Loading historical data...
Loading historical data...
Loading historical data...

Documentation

Showing up to 5 results
|